User: anonymous   Login
Location: Krakow
(50.0830°N, 19.9170°E)
Time: 20:30:09
(UTC+02:00)
Language:

CAS-4B - Orbit

View from above orbital plane
View from above orbital plane
View from above satellite
View from above satellite

Ground track
Ground track

The orbit data is extracted from the following two-line orbital elements,

1 42759U 17034B   24150.93881925  .00013907  00000-0  51205-3 0  9995
2 42759  43.0195 329.6502 0013144 232.5591 127.4065 15.27630324384618
Epoch (UTC): 29 May 2024 22:31:53
Eccentricity: 0.0013144
inclination: 43.0195°
perigee height: 474 km
apogee height: 492 km
right ascension of ascending node: 329.6502°
argument of perigee: 232.5591°
revolutions per day: 15.27630324
mean anomaly at epoch: 127.4065°
orbit number at epoch: 38461

The dashed part of the orbit path shows where the satellite is in the earth's shadow,  

DLR